Temperature
9 9 10 10 10 10 10 10 10 10 10 10 10 10 10 10 10 11 11 11 11 11 11 11 11 11 11 11 11 11 11 11 11 11 11 11 11 12 12 12 12 12 12
9 9 9 9 10 10 10 10 10 10 10 10 10 10 10 10 10 10 10 10 10 11 10 10 10 10 10 10 10 10 10 10 10 10 10 10 11 11 11 11 11 12 12
9 9 9 9 9 9 9 9 9 9 9 9 9 9 9 10 10 10 10 10 10 10 10 10 10 10 10 10 10 10 10 10 10 10 10 10 11 11 11 11 11 11 11
9 9 9 9 9 9 9 9 9 9 9 9 9 9 9 9 9 9 9 9 9 10 10 10 10 10 9 9 9 9 9 9 9 9 9 9 10 10 10 10 10 10 10
8 8 9 9 9 9 9 9 9 9 9 8 8 8 8 8 8 9 9 9 9 9 9 9 9 9 9 9 9 9 9 9 9 9 9 9 9 9 9 9 9 9 10
8 8 8 8 8 8 8 8 8 8 8 8 8 8 8 8 8 8 8 8 8 8 8 8 8 9 9 9 9 9 8 8 8 8 8 8 8 8 8 8 8 9 9
8 8 8 8 8 8 8 8 8 8 8 8 8 8 8 7 7 7 7 8 8 8 8 8 8 8 8 8 8 8 8 8 8 8 8 8 8 8 8 8 8 8 8
8 7 7 7 8 8 7 7 7 7 7 7 7 7 7 7 7 7 7 7 7 7 7 7 7 7 7 7 7 7 8 8 8 8 7 7 7 7 7 7 7 7 7
8 7 7 7 7 7 7 7 7 7 7 7 7 7 7 7 7 7 7 7 7 7 7 7 7 7 7 7 7 7 7 7 7 7 7 7 7 7 7 7 7 7 6
8 8 7 7 7 7 7 7 7 7 7 6 6 6 6 6 6 6 6 6 6 6 6 6 6 6 6 6 6 6 6 6 6 6 6 6 6 6 6 6 6 6 6
8 8 8 7 7 7 7 7 7 7 6 6 6 6 6 6 6 6 6 6 6 6 6 6 6 6 6 6 5 6 6 6 6 6 6 6 6 6 6 6 6 5 5
8 8 7 7 7 7 7 6 6 6 6 6 6 6 6 6 6 6 6 5 5 5 5 5 5 5 5 5 5 5 5 5 5 5 5 5 5 5 5 5 5 5 5
8 7 7 7 7 7 6 6 6 6 6 6 6 6 6 5 5 5 5 5 5 5 5 5 5 5 5 5 5 5 5 5 5 5 5 5 5 4 4 4 4 4 4
8 7 7 7 7 7 6 6 6 6 6 6 6 5 5 5 5 5 5 5 5 5 5 5 4 4 4 4 4 4 4 4 4 4 4 4 4 4 4 3 3 3 3
7 7 7 7 7 7 6 6 6 6 6 5 5 5 5 5 5 5 5 5 5 5 4 4 4 4 4 4 4 4 4 4 4 4 4 3 3 3 3 3 3 2 2
7 7 7 7 7 7 6 6 6 6 6 5 5 5 5 5 5 5 5 5 4 4 4 4 4 4 4 4 4 3 3 3 3 3 3 3 3 3 2 2 2 2 2
7 7 7 7 7 7 6 6 6 6 5 5 5 5 5 5 4 4 4 4 4 4 4 3 3 3 3 3 3 3 3 3 3 2 2 2 2 2 2 2 2 2 1
7 7 7 7 7 6 6 6 6 6 5 5 5 5 5 4 4 4 4 4 4 4 3 3 3 3 3 3 3 3 2 2 2 2 2 2 2 2 1 1 1 1 1
7 7 7 7 7 6 6 6 6 5 5 5 5 5 4 4 4 4 4 4 4 3 3 3 3 3 3 2 2 2 2 2 2 2 1 1 1 1 1 1 0 0 0
7 7 7 7 7 6 6 6 5 5 5 5 5 4 4 4 4 4 4 3 3 3 3 3 3 2 2 2 2 2 1 1 1 1 1 1 0 0 0 -0 -0 -0 -1
7 7 7 7 7 6 6 6 5 5 5 5 5 4 4 4 4 4 3 3 3 3 3 2 2 2 2 2 2 1 1 1 1 1 0 0 0 -0 -0 -1 -1 -1 -1
6 6 6 6 6 6 6 5 5 5 5 4 4 4 4 4 3 3 3 3 3 2 2 2 2 2 2 1 1 1 1 1 0 0 0 -0 -0 -1 -1 -1 -1 -2 -2
6 6 6 6 6 6 5 5 5 5 5 4 4 4 4 3 3 3 3 3 2 2 2 2 2 1 1 1 1 1 1 0 0 -0 -0 -1 -1 -1 -1 -1 -2 -2 -2
5 5 5 6 6 6 5 5 5 4 4 4 4 4 3 3 3 3 3 2 2 2 2 2 1 1 1 1 0 0 0 -0 -0 -1 -1 -1 -1 -1 -2 -2 -2 -3 -3
5 5 5 5 5 5 5 5 4 4 4 4 3 3 3 3 3 3 2 2 2 2 2 1 1 1 1 0 0 -0 -0 -1 -1 -1 -1 -1 -2 -2 -2 -3 -3 -3 -3
4 5 5 5 5 5 4 4 4 4 4 3 3 3 3 3 3 2 2 2 2 2 1 1 1 1 0 -0 -0 -1 -1 -1 -1 -2 -2 -2 -2 -3 -3 -3 -3 -3 -4
Wind_Speed
3 2 2 2 3 3 4 4 5 5 4 3 3 3 3 3 3 3 4 5 5 5 5 5 5 6 6 7 7 6 7 7 5 5 6 7 9 9 9 8 9 9 10
4 3 2 2 3 4 4 5 5 5 4 4 3 3 4 4 4 4 4 5 5 5 4 5 5 5 6 7 7 7 6 5 5 5 5 5 6 8 8 8 8 9 8
6 4 3 3 3 4 4 4 5 5 4 4 3 3 3 3 3 4 4 4 5 4 4 5 5 5 5 6 6 7 7 6 6 5 5 5 5 4 5 7 7 7 7
6 5 4 4 4 4 4 4 4 4 4 4 4 4 4 5 5 5 4 5 5 4 4 5 4 5 5 5 6 6 6 7 6 5 6 6 5 4 4 5 5 6 6
6 6 5 4 4 3 3 4 4 4 4 4 4 5 5 5 5 5 5 5 4 4 4 4 4 4 4 5 6 5 6 6 6 5 4 5 6 7 7 7 5 5 5
5 5 4 4 3 3 3 3 4 4 4 4 4 5 5 5 5 5 5 4 3 3 4 4 4 4 4 5 5 5 5 5 6 6 5 5 5 5 6 7 6 6 4
5 5 4 4 4 4 3 4 4 4 4 4 4 5 5 5 5 5 5 4 3 3 4 4 4 3 4 4 4 4 4 5 5 5 5 5 5 5 5 6 6 6 5
4 5 5 5 5 5 4 4 5 5 4 4 4 4 4 3 4 4 4 4 4 4 4 4 4 4 4 4 3 3 4 4 4 5 5 4 4 4 4 5 5 6 5
5 5 5 6 6 5 5 5 5 5 5 5 5 4 4 4 4 4 4 4 4 4 4 4 3 3 3 3 3 3 3 4 4 4 4 4 3 3 4 4 4 5 6
5 6 6 6 6 6 5 5 5 5 5 5 4 4 4 4 4 4 4 4 4 4 4 4 3 3 3 3 3 3 3 3 3 3 3 3 3 3 3 4 4 5 6
6 6 6 6 6 6 5 5 5 5 5 5 5 4 4 4 4 3 4 4 4 3 3 3 3 3 3 3 3 3 3 3 3 2 3 3 3 3 3 3 3 4 4
7 7 6 6 6 6 6 6 6 6 5 5 5 4 4 3 4 4 4 3 3 3 3 3 3 3 3 3 3 3 3 3 3 3 3 3 3 3 3 3 3 3 4
8 7 7 7 7 7 7 6 6 6 5 5 5 4 4 4 4 3 3 3 2 2 2 2 2 3 3 2 2 3 3 3 3 3 3 3 3 3 3 4 4 4 4
8 8 7 7 7 7 7 7 6 6 5 5 5 5 4 4 4 3 3 2 2 2 2 2 2 2 2 2 2 2 2 2 2 2 3 3 3 4 4 4 4 4 4
9 8 8 7 7 7 7 7 6 5 5 5 5 5 4 4 3 3 3 2 1 2 2 1 2 2 2 2 3 3 3 3 2 2 2 2 2 3 4 3 4 4 4
10 9 9 8 8 8 7 7 7 6 5 6 6 5 4 4 4 3 3 2 2 2 1 1 2 2 2 2 2 2 2 2 2 2 2 2 2 2 3 4 4 5 5
10 10 9 8 8 8 7 7 7 6 6 6 6 5 5 5 4 4 3 3 2 2 2 2 2 2 2 2 2 2 2 2 2 2 2 1 2 3 3 3 3 4 5
10 9 8 8 8 7 7 7 6 6 6 6 6 6 6 6 5 4 4 4 3 3 3 2 2 2 2 2 2 2 2 2 2 2 2 2 2 2 3 3 4 4 4
10 9 8 8 7 7 6 6 6 6 7 7 7 6 6 6 6 5 5 4 4 3 3 3 3 3 2 2 2 3 2 2 2 2 2 2 2 2 3 3 4 4 4
9 9 8 7 7 7 6 7 7 7 8 8 7 6 6 7 7 6 5 4 4 4 3 3 3 3 3 1 2 3 2 2 2 1 1 2 2 3 4 4 4 4 4
11 9 8 7 7 6 6 8 8 9 8 6 6 6 6 7 7 6 5 5 4 4 4 3 3 3 3 2 3 3 2 2 2 2 1 1 2 3 4 4 4 4 5
11 9 8 8 7 6 7 9 10 8 6 6 6 6 6 6 5 6 5 5 5 5 4 4 3 3 3 3 3 3 3 2 2 2 2 1 2 3 4 3 3 5 4
11 9 9 9 7 7 8 10 8 6 6 6 7 7 6 6 6 6 6 5 5 5 4 4 4 3 3 3 4 4 4 3 2 2 1 2 2 3 2 3 4 4 2
11 9 9 9 9 8 9 9 7 6 7 7 7 7 6 6 7 6 6 6 6 6 5 5 4 4 3 3 3 3 3 3 3 2 2 2 2 2 2 3 2 2 2
11 9 10 10 10 9 9 8 7 7 8 8 7 7 7 7 6 7 6 7 7 7 6 5 5 5 4 5 5 4 3 3 3 2 2 2 2 2 2 2 2 2 2
10 10 10 11 10 9 9 8 8 8 8 8 7 6 6 6 6 6 5 7 8 8 9 7 6 5 5 4 6 7 6 5 5 4 3 3 3 3 2 2 2 2 2
Wind_Direction
241 258 287 310 320 331 334 333 331 331 328 322 313 305 305 310 310 317 318 308 297 286 273 268 260 251 245 245 246 248 247 245 244 253 258 255 247 244 242 242 244 243 242
234 242 265 294 311 321 326 323 323 323 323 318 312 298 297 298 303 307 311 311 306 297 283 272 266 259 252 247 244 246 249 249 236 241 258 261 253 242 239 237 239 243 239
237 240 252 275 298 311 319 318 316 316 317 315 305 297 288 285 291 296 298 304 304 298 289 279 270 269 261 255 250 245 246 249 242 236 240 249 252 272 242 239 239 241 240
237 244 251 265 284 300 310 308 310 312 313 307 295 293 290 289 294 297 296 300 299 298 296 290 281 274 270 265 258 250 249 249 246 243 245 257 267 262 263 246 242 245 245
239 244 251 263 275 290 302 303 305 308 309 301 294 289 283 285 290 291 293 296 297 300 301 294 285 280 275 274 270 262 253 250 249 246 248 254 256 252 257 261 254 250 250
247 252 254 259 268 282 294 301 301 306 310 303 295 288 286 287 290 293 293 294 296 303 308 300 290 286 280 277 276 269 260 254 253 250 244 244 246 250 250 255 257 260 265
250 251 253 257 263 271 280 289 295 298 302 298 296 291 284 282 283 289 292 294 297 302 307 307 302 297 292 287 283 275 268 261 258 257 252 250 254 260 260 260 263 267 273
252 254 256 258 260 264 268 276 284 289 292 291 293 292 287 284 285 287 288 288 292 294 303 307 304 303 301 295 289 280 274 268 262 261 259 257 262 264 260 261 265 269 269
256 258 259 258 259 259 260 266 274 280 285 286 287 287 286 281 282 283 281 282 284 292 298 298 298 305 306 301 294 278 271 265 261 260 261 262 263 260 262 260 255 260 264
264 261 257 257 258 256 257 259 264 272 279 282 282 283 285 285 283 279 278 278 280 284 289 292 292 298 301 296 285 278 279 272 269 267 261 264 266 263 265 264 263 260 260
274 266 262 259 256 254 253 256 260 266 272 275 276 278 282 284 282 278 282 283 282 282 282 283 285 289 293 288 278 274 270 260 261 264 260 263 265 261 261 265 264 261 260
279 271 265 259 254 253 253 255 257 258 262 265 266 269 274 276 277 280 285 285 282 283 281 282 280 284 285 281 272 266 260 256 257 259 259 265 268 269 268 265 262 261 264
281 274 266 257 254 253 253 254 254 253 253 252 254 258 261 264 270 276 282 287 288 287 286 278 270 270 273 273 272 266 264 261 259 260 262 267 272 275 274 272 268 267 266
278 273 267 259 254 250 249 251 253 249 246 247 248 251 255 259 264 270 276 287 294 293 294 295 282 278 277 275 273 265 262 268 274 272 268 273 272 275 279 276 274 273 272
277 269 263 260 254 250 248 246 246 243 238 242 244 248 253 257 259 262 269 279 287 286 284 295 304 298 289 290 282 265 258 262 267 273 274 282 292 297 290 286 288 286 280
278 272 265 259 254 248 245 242 241 237 231 234 239 242 244 246 247 251 253 254 261 271 279 287 295 302 296 312 304 287 267 269 268 275 285 293 294 306 312 312 314 305 288
285 278 270 261 255 248 240 237 236 232 230 233 234 233 234 239 241 239 238 241 244 246 252 265 277 279 285 296 281 272 267 266 272 278 294 309 322 318 318 321 316 308 305
291 284 276 269 260 250 241 237 232 228 229 232 233 229 228 232 232 232 235 238 236 234 238 247 260 271 284 292 279 260 251 254 267 278 283 286 310 328 322 314 313 313 315
293 287 280 271 260 248 238 231 230 227 229 232 232 229 226 228 227 227 232 231 227 228 233 236 239 249 262 271 273 265 240 239 253 269 283 287 297 326 316 305 306 309 318
293 287 282 270 256 246 230 225 230 229 233 234 233 229 225 227 228 228 227 224 223 225 224 226 230 237 249 248 256 266 240 239 249 263 283 301 310 321 312 296 295 301 313
293 287 275 265 255 243 226 228 232 235 237 234 231 228 225 226 227 226 220 216 217 219 219 227 233 237 244 238 241 255 247 242 245 255 275 299 320 319 318 307 298 300 308
289 282 272 266 258 240 228 233 237 239 234 227 228 228 225 223 220 219 215 213 212 216 221 227 235 235 233 241 240 237 244 257 245 256 273 297 317 311 312 315 321 318 314
285 277 268 266 257 240 232 239 243 235 223 223 227 228 225 223 218 215 212 210 213 218 221 224 232 234 229 230 234 233 231 229 240 252 277 296 303 303 304 317 323 317 309
281 273 265 260 258 246 239 242 242 229 223 227 228 225 221 220 217 215 213 212 213 216 219 222 228 231 230 228 222 223 222 218 226 236 238 257 275 283 302 309 310 308 311
278 267 259 259 259 253 245 241 233 221 224 229 228 224 220 218 215 215 217 218 222 222 219 221 221 222 230 227 218 211 209 212 214 211 223 238 252 265 281 294 299 303 303
277 268 262 260 261 254 248 240 228 219 221 226 226 222 218 216 213 214 222 226 231 229 231 235 231 232 235 216 210 212 212 209 202 208 224 230 239 253 267 278 284 286 292
Height
1519 1519 1518 1518 1517 1516 1515 1514 1513 1512 1510 1509 1508 1507 1507 1506 1505 1504 1503 1503 1502 1502 1502 1502 1502 1502 1502 1502 1503 1503 1503 1503 1504 1504 1503 1502 1502 1502 1502 1502 1503 1503 1503
1517 1516 1516 1515 1515 1514 1513 1512 1511 1509 1508 1507 1506 1505 1504 1503 1502 1501 1500 1499 1499 1499 1498 1498 1498 1498 1498 1498 1498 1499 1498 1498 1499 1500 1499 1498 1498 1496 1496 1496 1497 1497 1498
1514 1514 1513 1513 1512 1512 1510 1509 1508 1507 1505 1504 1503 1502 1501 1500 1499 1498 1497 1496 1496 1495 1495 1495 1494 1494 1494 1494 1494 1494 1494 1494 1494 1495 1496 1495 1493 1492 1492 1491 1491 1492 1492
1511 1511 1511 1511 1510 1509 1508 1507 1505 1504 1503 1502 1501 1500 1498 1497 1496 1495 1494 1493 1492 1491 1491 1491 1490 1490 1490 1490 1490 1490 1490 1490 1489 1489 1490 1490 1489 1490 1487 1487 1487 1486 1487
1508 1508 1508 1508 1507 1506 1505 1504 1503 1502 1500 1499 1498 1497 1495 1494 1492 1491 1490 1489 1488 1488 1487 1487 1486 1486 1485 1485 1485 1485 1485 1485 1485 1485 1485 1484 1484 1484 1484 1483 1482 1482 1482
1505 1505 1505 1505 1504 1504 1503 1502 1500 1499 1498 1497 1495 1494 1492 1491 1489 1488 1487 1486 1485 1484 1483 1483 1482 1481 1481 1481 1481 1481 1481 1481 1480 1480 1480 1480 1480 1479 1479 1478 1477 1477 1477
1503 1503 1502 1502 1501 1501 1500 1499 1498 1497 1495 1494 1492 1491 1489 1488 1486 1485 1484 1482 1481 1480 1480 1479 1478 1477 1477 1477 1477 1476 1476 1476 1476 1475 1475 1475 1475 1475 1475 1475 1473 1473 1472
1500 1500 1500 1499 1499 1498 1497 1496 1495 1494 1493 1491 1490 1488 1486 1485 1483 1482 1480 1479 1478 1477 1476 1475 1474 1474 1473 1473 1473 1472 1472 1472 1471 1471 1471 1471 1470 1470 1471 1471 1470 1469 1468
1498 1498 1497 1497 1496 1495 1494 1493 1492 1491 1489 1488 1486 1485 1484 1482 1480 1479 1477 1476 1475 1474 1473 1472 1471 1470 1470 1469 1469 1468 1468 1467 1467 1467 1467 1466 1466 1466 1466 1466 1466 1467 1465
1496 1495 1495 1494 1493 1492 1491 1490 1489 1488 1486 1485 1483 1482 1480 1479 1478 1476 1475 1473 1472 1471 1470 1469 1468 1467 1466 1466 1465 1464 1464 1464 1463 1463 1463 1463 1463 1462 1462 1462 1461 1461 1461
1493 1492 1492 1491 1490 1489 1488 1487 1486 1484 1483 1481 1480 1479 1477 1476 1475 1473 1472 1470 1469 1468 1467 1466 1465 1464 1464 1463 1462 1461 1461 1460 1460 1459 1459 1459 1459 1458 1458 1457 1457 1456 1456
1490 1489 1488 1487 1486 1485 1485 1484 1482 1481 1480 1478 1477 1475 1474 1473 1472 1470 1469 1468 1466 1465 1464 1463 1462 1461 1460 1460 1459 1458 1458 1457 1457 1456 1456 1455 1455 1454 1454 1453 1453 1452 1451
1487 1486 1485 1483 1482 1481 1481 1480 1479 1477 1476 1475 1474 1472 1471 1470 1469 1467 1466 1465 1463 1462 1461 1460 1459 1458 1457 1457 1456 1455 1455 1454 1454 1453 1453 1452 1452 1451 1450 1449 1449 1448 1447
1483 1482 1480 1479 1478 1477 1476 1476 1475 1474 1473 1471 1470 1469 1468 1467 1465 1464 1463 1462 1461 1459 1458 1457 1457 1456 1455 1454 1453 1452 1452 1451 1451 1450 1449 1449 1448 1448 1447 1446 1445 1444 1443
1479 1477 1476 1475 1474 1473 1472 1471 1470 1470 1469 1468 1467 1466 1465 1464 1462 1461 1460 1459 1458 1457 1456 1455 1454 1453 1452 1451 1451 1450 1449 1448 1448 1447 1446 1445 1445 1444 1444 1443 1442 1441 1440
1474 1473 1472 1470 1469 1469 1468 1467 1466 1465 1465 1464 1463 1462 1461 1460 1459 1458 1457 1456 1455 1454 1453 1452 1452 1451 1450 1449 1448 1447 1446 1445 1445 1444 1443 1442 1442 1441 1440 1439 1438 1437 1436
1470 1469 1467 1466 1465 1464 1463 1463 1462 1461 1460 1460 1459 1458 1458 1457 1456 1455 1454 1453 1452 1452 1451 1450 1449 1448 1447 1446 1445 1444 1443 1442 1442 1441 1440 1439 1438 1438 1437 1435 1434 1433 1432
1466 1465 1463 1462 1461 1460 1459 1458 1458 1457 1456 1456 1455 1454 1454 1453 1452 1452 1451 1450 1449 1449 1448 1447 1446 1446 1445 1444 1443 1442 1441 1440 1439 1438 1437 1436 1435 1434 1433 1432 1431 1429 1428
1463 1461 1460 1458 1457 1455 1455 1454 1453 1453 1452 1451 1451 1450 1450 1449 1449 1448 1447 1447 1446 1446 1445 1444 1444 1443 1442 1441 1440 1439 1438 1437 1436 1435 1435 1434 1433 1432 1430 1429 1427 1426 1424
1460 1457 1455 1454 1452 1451 1450 1449 1448 1448 1447 1447 1447 1446 1446 1445 1445 1444 1444 1443 1443 1442 1442 1441 1441 1440 1439 1438 1437 1437 1436 1435 1434 1433 1432 1431 1430 1429 1427 1426 1424 1422 1421
1455 1453 1451 1449 1448 1446 1445 1444 1443 1443 1443 1442 1442 1441 1441 1441 1441 1440 1440 1439 1439 1439 1438 1438 1437 1437 1436 1435 1434 1434 1433 1432 1431 1430 1429 1428 1427 1425 1424 1422 1421 1419 1417
1450 1448 1446 1444 1443 1441 1440 1439 1438 1438 1438 1437 1437 1437 1436 1436 1436 1436 1435 1435 1435 1435 1434 1434 1434 1433 1433 1432 1431 1431 1430 1429 1428 1427 1426 1425 1424 1422 1421 1419 1417 1416 1414
1444 1442 1440 1438 1437 1436 1435 1434 1433 1433 1432 1432 1432 1431 1431 1431 1431 1431 1431 1431 1430 1430 1430 1430 1430 1429 1429 1429 1428 1427 1427 1426 1425 1424 1423 1422 1421 1419 1418 1416 1415 1413 1411
1438 1436 1434 1432 1431 1430 1429 1429 1428 1428 1427 1426 1426 1426 1426 1426 1426 1426 1426 1426 1426 1426 1426 1425 1425 1425 1425 1425 1424 1424 1423 1423 1422 1421 1420 1419 1418 1417 1415 1413 1412 1410 1409
1432 1430 1428 1426 1425 1424 1423 1423 1422 1422 1421 1421 1421 1421 1421 1421 1421 1421 1421 1421 1421 1421 1421 1421 1422 1421 1421 1421 1421 1421 1420 1420 1419 1418 1417 1416 1415 1414 1412 1411 1409 1408 1406
1425 1423 1422 1420 1419 1418 1417 1417 1416 1416 1415 1415 1415 1415 1415 1415 1415 1415 1416 1416 1416 1416 1417 1417 1417 1417 1417 1417 1417 1417 1417 1416 1416 1415 1413 1413 1412 1410 1409 1408 1406 1405 1403